Location: Godiavel Galaoual
(15.2485°N, 12.6604°W)
Time: 10:12:28
(UTC+00:00)

Hubble Space Telescope - Pass Details

Date: 20 May 2021
Orbit: 535 x 539 km, 28.5° (Epoch: 17 June)

Event Time Altitude Azimuth Distance (km) Brightness Sun altitude
Exits shadow 05:06:34 20° 298° (WNW) 1,256 2.3 -17.2°
Maximum altitude 05:08:27 29° 341° (NNW) 993 2.2 -16.8°
Drops below altitude 10° 05:12:02 10° 42° (NE) 1,774 4.5 -16.0°
Sets 05:14:31 0° 54° (NE) 2,664 6.1 -15.5°
